• In Germany
  • List of Countries
  • For 7 days
  • Water Temperature
  • Satellite Maps
  • Weather Map
  • Weather Widgets
  • user-avatar
    Login

    Hourly Weather Kranevo

    Today, 21 August, Monday

    Time Temperature Precipitation Wind Pressure Humidity
    00:00 +23°C° 0 mm 2 mps 753 mmHg 92%
    01:00 +23°C° 0 mm 1 mps 753 mmHg 92%
    02:00 +23°C° 0 mm 1 mps 753 mmHg 92%
    03:00 +23°C° 0 mm 1 mps 753 mmHg 92%
    04:00 +21°C° 0 mm 2 mps 752 mmHg 92%
    05:00 +21°C° 0 mm 2 mps 752 mmHg 92%
    06:00 +24°C° 0.2 mm 3 mps 752 mmHg 83%
    07:00 +25°C° 0.2 mm 3 mps 753 mmHg 74%
    08:00 +26°C° 0.2 mm 3 mps 753 mmHg 65%
    09:00 +28°C° 0.1 mm 3 mps 752 mmHg 56%
    10:00 +29°C° 0.1 mm 3 mps 752 mmHg 48%
    11:00 +31°C° 0.1 mm 3 mps 752 mmHg 40%
    12:00 +31°C° 0 mm 3 mps 752 mmHg 38%
    13:00 +33°C° 0 mm 3 mps 752 mmHg 36%
    14:00 +33°C° 0 mm 3 mps 751 mmHg 35%
    15:00 +33°C° 0 mm 3 mps 751 mmHg 37%
    16:00 +31°C° 0 mm 3 mps 751 mmHg 40%
    17:00 +31°C° 0 mm 2 mps 750 mmHg 42%
    18:00 +29°C° 0 mm 3 mps 751 mmHg 46%
    19:00 +28°C° 0 mm 3 mps 751 mmHg 51%
    20:00 +27°C° 0 mm 4 mps 751 mmHg 55%
    21:00 +25°C° 0.1 mm 5 mps 751 mmHg 59%
    22:00 +23°C° 0.1 mm 7 mps 752 mmHg 63%
    23:00 +22°C° 0.1 mm 8 mps 752 mmHg 67%

    Tomorrow, 22 August, Tuesday

    Time Temperature Precipitation Wind Pressure Humidity
    00:00 +21°C° 0.1 mm 8 mps 752 mmHg 69%
    01:00 +20°C° 0.1 mm 8 mps 752 mmHg 70%
    02:00 +18°C° 0.1 mm 8 mps 752 mmHg 72%
    03:00 +17°C° 0 mm 8 mps 753 mmHg 72%
    04:00 +17°C° 0 mm 7 mps 753 mmHg 73%
    05:00 +16°C° 0 mm 7 mps 753 mmHg 74%
    06:00 +16°C° 0.3 mm 7 mps 753 mmHg 74%
    07:00 +16°C° 0.3 mm 7 mps 754 mmHg 74%
    08:00 +17°C° 0.3 mm 7 mps 754 mmHg 75%
    09:00 +17°C° 0.5 mm 7 mps 754 mmHg 75%
    10:00 +17°C° 0.5 mm 8 mps 755 mmHg 76%
    11:00 +17°C° 0.5 mm 8 mps 755 mmHg 77%
    12:00 +18°C° 0 mm 7 mps 755 mmHg 70%
    13:00 +20°C° 0 mm 7 mps 755 mmHg 64%
    14:00 +21°C° 0 mm 7 mps 755 mmHg 58%
    15:00 +21°C° 0 mm 6 mps 755 mmHg 57%
    16:00 +21°C° 0 mm 5 mps 754 mmHg 55%
    17:00 +22°C° 0 mm 5 mps 754 mmHg 54%
    18:00 +21°C° 0 mm 4 mps 755 mmHg 59%
    19:00 +19°C° 0 mm 4 mps 755 mmHg 64%
    20:00 +18°C° 0 mm 3 mps 755 mmHg 68%
    21:00 +18°C° 0 mm 3 mps 755 mmHg 70%
    22:00 +18°C° 0 mm 3 mps 755 mmHg 71%
    23:00 +17°C° 0 mm 3 mps 755 mmHg 72%

    Day after tomorrow, 23 August, Wednesday

    Time Temperature Precipitation Wind Pressure Humidity
    00:00 +17°C° 0 mm 3 mps 756 mmHg 71%
    01:00 +17°C° 0 mm 3 mps 756 mmHg 69%
    02:00 +17°C° 0 mm 3 mps 756 mmHg 68%
    03:00 +17°C° 0 mm 3 mps 756 mmHg 67%
    04:00 +16°C° 0 mm 3 mps 756 mmHg 67%
    05:00 +16°C° 0 mm 3 mps 756 mmHg 66%
    06:00 +18°C° 0 mm 3 mps 756 mmHg 60%
    07:00 +20°C° 0 mm 3 mps 756 mmHg 54%
    08:00 +21°C° 0 mm 3 mps 757 mmHg 48%
    09:00 +24°C° 0 mm 3 mps 757 mmHg 44%
    10:00 +26°C° 0 mm 3 mps 757 mmHg 39%
    11:00 +27°C° 0 mm 3 mps 757 mmHg 35%
    12:00 +28°C° 0 mm 3 mps 757 mmHg 34%
    13:00 +28°C° 0 mm 4 mps 756 mmHg 33%
    14:00 +28°C° 0 mm 4 mps 756 mmHg 32%
    15:00 +28°C° 0 mm 4 mps 756 mmHg 33%
    16:00 +28°C° 0 mm 3 mps 756 mmHg 35%
    17:00 +27°C° 0 mm 3 mps 756 mmHg 36%
    18:00 +26°C° 0.1 mm 3 mps 756 mmHg 40%
    19:00 +25°C° 0.1 mm 2 mps 757 mmHg 45%
    20:00 +23°C° 0.1 mm 2 mps 757 mmHg 49%
    21:00 +23°C° 0 mm 2 mps 757 mmHg 53%
    22:00 +21°C° 0 mm 2 mps 757 mmHg 57%
    23:00 +20°C° 0 mm 2 mps 757 mmHg 60%

    24 August, Thursday

    Time Temperature Precipitation Wind Pressure Humidity
    00:00 +20°C° 0.1 mm 2 mps 757 mmHg 60%
    01:00 +19°C° 0.1 mm 2 mps 758 mmHg 61%
    02:00 +19°C° 0.1 mm 2 mps 758 mmHg 61%
    03:00 +18°C° 0 mm 2 mps 758 mmHg 61%
    04:00 +18°C° 0 mm 2 mps 758 mmHg 61%
    05:00 +17°C° 0 mm 2 mps 758 mmHg 61%
    06:00 +19°C° 0 mm 2 mps 758 mmHg 57%
    07:00 +20°C° 0 mm 3 mps 758 mmHg 53%
    08:00 +22°C° 0 mm 3 mps 759 mmHg 48%
    09:00 +25°C° 0 mm 3 mps 759 mmHg 45%
    10:00 +26°C° 0 mm 2 mps 759 mmHg 42%
    11:00 +28°C° 0 mm 2 mps 759 mmHg 39%
    12:00 +28°C° 0 mm 2 mps 759 mmHg 38%
    13:00 +29°C° 0 mm 3 mps 759 mmHg 37%
    14:00 +29°C° 0 mm 3 mps 759 mmHg 35%
    15:00 +29°C° 0 mm 3 mps 759 mmHg 38%
    16:00 +28°C° 0 mm 3 mps 759 mmHg 40%
    17:00 +28°C° 0 mm 3 mps 759 mmHg 43%
    18:00 +26°C° 0 mm 3 mps 759 mmHg 52%
    19:00 +24°C° 0 mm 2 mps 759 mmHg 61%
    20:00 +21°C° 0 mm 2 mps 759 mmHg 70%
    21:00 +21°C° 0 mm 2 mps 760 mmHg 73%
    22:00 +20°C° 0 mm 2 mps 760 mmHg 75%
    23:00 +21°C° 0 mm 1 mps 760 mmHg 78%

    25 August, Friday

    Time Temperature Precipitation Wind Pressure Humidity
    00:00 +21°C° 0 mm 1 mps 760 mmHg 78%
    01:00 +20°C° 0 mm 1 mps 760 mmHg 77%
    02:00 +20°C° 0 mm 1 mps 760 mmHg 77%
    03:00 +20°C° 0 mm 1 mps 760 mmHg 77%
    04:00 +20°C° 0 mm 1 mps 760 mmHg 77%
    05:00 +19°C° 0 mm 1 mps 760 mmHg 76%
    06:00 +21°C° 0 mm 1 mps 760 mmHg 68%
    07:00 +23°C° 0 mm 1 mps 761 mmHg 61%
    08:00 +25°C° 0 mm 1 mps 761 mmHg 53%
    09:00 +27°C° 0 mm 2 mps 761 mmHg 45%
    10:00 +28°C° 0 mm 2 mps 761 mmHg 38%
    11:00 +30°C° 0 mm 2 mps 761 mmHg 31%
    12:00 +30°C° 0 mm 2 mps 761 mmHg 30%
    13:00 +31°C° 0 mm 3 mps 761 mmHg 29%
    14:00 +31°C° 0 mm 3 mps 761 mmHg 28%
    15:00 +30°C° 0 mm 4 mps 760 mmHg 30%
    16:00 +30°C° 0 mm 4 mps 760 mmHg 33%
    17:00 +29°C° 0 mm 4 mps 760 mmHg 35%
    18:00 +27°C° 0 mm 4 mps 760 mmHg 45%
    19:00 +25°C° 0 mm 3 mps 761 mmHg 54%
    20:00 +22°C° 0 mm 3 mps 761 mmHg 63%
    21:00 +21°C° 0 mm 2 mps 761 mmHg 66%
    22:00 +21°C° 0 mm 2 mps 761 mmHg 69%
    23:00 +20°C° 0 mm 2 mps 761 mmHg 72%

    26 August, Saturday

    Time Temperature Precipitation Wind Pressure Humidity
    00:00 +20°C° 0 mm 2 mps 761 mmHg 73%
    01:00 +21°C° 0 mm 1 mps 761 mmHg 74%
    02:00 +20°C° 0 mm 1 mps 761 mmHg 75%
    03:00 +20°C° 0 mm 1 mps 761 mmHg 76%
    04:00 +19°C° 0 mm 2 mps 761 mmHg 76%
    05:00 +19°C° 0 mm 2 mps 761 mmHg 76%
    06:00 +20°C° 0 mm 2 mps 761 mmHg 68%
    07:00 +23°C° 0 mm 2 mps 761 mmHg 60%
    08:00 +25°C° 0 mm 3 mps 761 mmHg 53%
    09:00 +27°C° 0 mm 3 mps 761 mmHg 47%
    10:00 +28°C° 0 mm 4 mps 761 mmHg 41%
    11:00 +29°C° 0 mm 5 mps 761 mmHg 35%
    12:00 +30°C° 0 mm 5 mps 761 mmHg 35%
    13:00 +30°C° 0 mm 5 mps 761 mmHg 34%
    14:00 +32°C° 0 mm 5 mps 760 mmHg 33%
    15:00 +30°C° 0 mm 5 mps 760 mmHg 35%
    16:00 +29°C° 0 mm 5 mps 760 mmHg 37%
    17:00 +29°C° 0 mm 5 mps 760 mmHg 39%
    18:00 +27°C° 0 mm 5 mps 760 mmHg 47%
    19:00 +25°C° 0 mm 4 mps 760 mmHg 55%
    20:00 +22°C° 0 mm 3 mps 760 mmHg 63%
    21:00 +21°C° 0 mm 3 mps 760 mmHg 67%
    22:00 +20°C° 0 mm 3 mps 760 mmHg 70%
    23:00 +20°C° 0 mm 2 mps 760 mmHg 73%
    Show more